TimeEST,TemperatureF,Dew PointF,Humidity,Sea Level PressureIn,VisibilityMPH,Wind Direction,Wind SpeedMPH,Gust SpeedMPH,PrecipitationIn,Events,Conditions,WindDirDegrees,DateUTC
12:53 AM,39.9,23.0,51,30.25,10.0,SW,6.9,17.3,N/A,,Clear,220,2013-01-19 05:53:00
1:53 AM,39.9,23.0,51,30.23,10.0,SSW,9.2,-,N/A,,Clear,200,2013-01-19 06:53:00
2:53 AM,39.9,24.1,53,30.23,10.0,SW,10.4,19.6,N/A,,Clear,220,2013-01-19 07:53:00
3:53 AM,39.9,24.1,53,30.22,10.0,SW,9.2,20.7,N/A,,Clear,220,2013-01-19 08:53:00
4:53 AM,39.9,23.0,51,30.21,10.0,SW,8.1,16.1,N/A,,Clear,220,2013-01-19 09:53:00
5:53 AM,39.0,23.0,53,30.22,10.0,SW,6.9,-,N/A,,Clear,220,2013-01-19 10:53:00
6:53 AM,39.0,24.1,55,30.21,10.0,SW,5.8,-,N/A,,Clear,220,2013-01-19 11:53:00
7:53 AM,39.0,24.1,55,30.21,10.0,Variable,6.9,-,N/A,,Clear,0,2013-01-19 12:53:00
8:53 AM,41.0,25.0,53,30.20,10.0,SSW,6.9,18.4,N/A,,Clear,210,2013-01-19 13:53:00
9:53 AM,44.1,25.0,47,30.20,10.0,SSW,11.5,25.3,N/A,,Clear,210,2013-01-19 14:53:00
10:53 AM,48.0,25.0,41,30.18,10.0,SSW,10.4,23.0,N/A,,Clear,210,2013-01-19 15:53:00
11:53 AM,52.0,25.0,35,30.14,10.0,SSW,12.7,19.6,N/A,,Clear,210,2013-01-19 16:53:00
12:53 PM,53.1,25.0,34,30.08,10.0,SW,12.7,23.0,N/A,,Clear,220,2013-01-19 17:53:00
1:53 PM,54.0,24.1,31,30.04,10.0,SSW,11.5,23.0,N/A,,Clear,210,2013-01-19 18:53:00
2:53 PM,55.9,24.1,29,30.01,10.0,SSW,16.1,28.8,N/A,,Clear,200,2013-01-19 19:53:00
3:53 PM,55.9,23.0,28,29.98,10.0,SSW,18.4,26.5,N/A,,Clear,210,2013-01-19 20:53:00
4:53 PM,54.0,25.0,33,29.95,10.0,SSW,13.8,23.0,N/A,,Clear,200,2013-01-19 21:53:00
5:53 PM,52.0,24.1,34,29.94,10.0,SSW,12.7,23.0,N/A,,Clear,200,2013-01-19 22:53:00
6:53 PM,51.1,25.0,36,29.95,10.0,SW,13.8,20.7,N/A,,Clear,220,2013-01-19 23:53:00
7:53 PM,50.0,26.1,39,29.96,10.0,SSW,9.2,19.6,N/A,,Clear,210,2013-01-20 00:53:00
8:53 PM,48.9,27.0,43,29.95,10.0,SW,9.2,18.4,N/A,,Clear,220,2013-01-20 01:53:00
9:53 PM,48.9,27.0,43,29.94,10.0,SW,8.1,18.4,N/A,,Clear,220,2013-01-20 02:53:00
10:53 PM,48.9,27.0,43,29.94,10.0,WSW,13.8,25.3,N/A,,Clear,240,2013-01-20 03:53:00
11:53 PM,48.0,28.0,46,29.94,10.0,WSW,11.5,19.6,N/A,,Clear,240,2013-01-20 04:53:00